AFL1886 UUEE-UCFM

Flight info

Callsign AFL1886
Flight time N/A
Altitude 35000
Route TOGMO M56 BEKAS L163 SIVKO L728 GEDSA L147 BASAN
Aircraft A321/M-SDE3FGHIRWY/LB1

Departure

Time 2026-05-06 10:47
Airport Sheremetyevo International Airport (UUEE)

Arrival

Time N/A
Airport Manas International Airport (UCFM)
Time Latitude Longitude Altitude Speed Heading
2026-05-06 09:50 55.97831 37.41288 636 ft 0 kts 255°
2026-05-06 10:34 55.97831 37.41289 636 ft 0 kts 255°
2026-05-06 10:34 55.97834 37.41308 636 ft 2 kts 255°
2026-05-06 10:34 55.97838 37.41336 636 ft 2 kts 255°
2026-05-06 10:35 55.97842 37.41363 636 ft 2 kts 255°
2026-05-06 10:35 55.97847 37.41391 636 ft 2 kts 228°
2026-05-06 10:35 55.97861 37.41405 636 ft 2 kts 185°
2026-05-06 10:35 55.97877 37.41400 636 ft 2 kts 158°
2026-05-06 10:36 55.97892 37.41392 636 ft 2 kts 167°
2026-05-06 10:36 55.97900 37.41389 636 ft 0 kts 165°
2026-05-06 10:40 55.97895 37.41391 636 ft 1 kts 165°
2026-05-06 10:40 55.97875 37.41402 636 ft 4 kts 164°
2026-05-06 10:40 55.97842 37.41417 636 ft 5 kts 164°
2026-05-06 10:41 55.97797 37.41439 636 ft 7 kts 165°
2026-05-06 10:41 55.97742 37.41465 636 ft 8 kts 164°
2026-05-06 10:41 55.97693 37.41502 636 ft 7 kts 133°
2026-05-06 10:41 55.97653 37.41583 636 ft 8 kts 149°
2026-05-06 10:42 55.97609 37.41661 636 ft 9 kts 102°
2026-05-06 10:42 55.97624 37.41782 636 ft 10 kts 74°
2026-05-06 10:42 55.97644 37.41914 636 ft 11 kts 75°
2026-05-06 10:42 55.97667 37.42066 636 ft 13 kts 75°
2026-05-06 10:43 55.97694 37.42245 636 ft 15 kts 75°
2026-05-06 10:43 55.97725 37.42449 636 ft 16 kts 75°
2026-05-06 10:43 55.97756 37.42657 636 ft 16 kts 75°
2026-05-06 10:44 55.97818 37.43075 636 ft 16 kts 75°
2026-05-06 10:44 55.97850 37.43290 636 ft 16 kts 75°
2026-05-06 10:44 55.97883 37.43504 636 ft 16 kts 75°
2026-05-06 10:44 55.97915 37.43717 636 ft 16 kts 74°
2026-05-06 10:45 55.97942 37.43905 636 ft 8 kts 75°
2026-05-06 10:45 55.97942 37.44004 636 ft 8 kts 126°
2026-05-06 10:45 55.97885 37.44049 636 ft 9 kts 163°
2026-05-06 10:45 55.97818 37.44082 636 ft 8 kts 165°
2026-05-06 10:46 55.97788 37.44063 636 ft 4 kts 240°
2026-05-06 10:46 55.97776 37.43994 636 ft 8 kts 253°
2026-05-06 10:46 55.97721 37.43624 636 ft 63 kts 254°
2026-05-06 10:46 55.97538 37.42392 636 ft 129 kts 255°
2026-05-06 10:47 55.97248 37.40465 715 ft 172 kts 255°
2026-05-06 10:47 55.96906 37.38294 1280 ft 176 kts 253°
2026-05-06 10:47 55.96312 37.36187 1922 ft 184 kts 238°
2026-05-06 10:47 55.95536 37.34222 2636 ft 180 kts 237°
2026-05-06 10:48 55.94760 37.32245 3032 ft 187 kts 237°
2026-05-06 10:48 55.93918 37.30141 3418 ft 196 kts 237°
2026-05-06 10:48 55.93012 37.27940 3849 ft 204 kts 236°
2026-05-06 10:48 55.92071 37.25709 4244 ft 215 kts 235°
2026-05-06 10:49 55.91053 37.23342 4556 ft 233 kts 236°
2026-05-06 10:49 55.90020 37.20631 4942 ft 248 kts 239°
2026-05-06 10:49 55.89051 37.17800 5787 ft 243 kts 244°
2026-05-06 10:49 55.88280 37.14914 6438 ft 247 kts 248°
2026-05-06 10:50 55.87545 37.11824 6957 ft 258 kts 249°
2026-05-06 10:50 55.86791 37.08582 7729 ft 259 kts 252°
2026-05-06 10:50 55.86146 37.05364 8484 ft 261 kts 243°
2026-05-06 10:50 55.84671 37.02932 9213 ft 274 kts 207°
2026-05-06 10:51 55.82614 37.02561 9938 ft 291 kts 173°
2026-05-06 10:51 55.80586 37.04232 10532 ft 309 kts 147°
2026-05-06 10:51 55.78840 37.07100 10898 ft 327 kts 140°
2026-05-06 10:51 55.77001 37.10142 11211 ft 342 kts 142°
2026-05-06 10:52 55.75051 37.13198 11513 ft 357 kts 143°
2026-05-06 10:52 55.72997 37.16305 11786 ft 372 kts 143°
2026-05-06 10:52 55.70870 37.19455 12158 ft 382 kts 143°
2026-05-06 10:52 55.68646 37.22710 12746 ft 386 kts 143°
2026-05-06 10:53 55.66434 37.25929 13358 ft 389 kts 144°
2026-05-06 10:53 55.64236 37.29113 13930 ft 391 kts 144°
2026-05-06 10:53 55.61976 37.32376 14514 ft 394 kts 144°
2026-05-06 10:53 55.59642 37.35734 15084 ft 397 kts 143°
2026-05-06 10:54 55.57267 37.39145 15661 ft 400 kts 143°
2026-05-06 10:54 55.54935 37.42487 16208 ft 403 kts 143°
2026-05-06 10:54 55.52641 37.45771 16727 ft 406 kts 143°
2026-05-06 10:54 55.50302 37.49115 17236 ft 409 kts 143°
2026-05-06 10:55 55.47884 37.52564 17761 ft 412 kts 143°
2026-05-06 10:55 55.45437 37.56049 18282 ft 414 kts 143°
2026-05-06 10:55 55.42970 37.59557 18789 ft 417 kts 143°
2026-05-06 10:55 55.40480 37.63093 19279 ft 420 kts 143°
2026-05-06 10:56 55.38006 37.66603 19737 ft 423 kts 144°
2026-05-06 10:56 55.35611 37.69992 20170 ft 426 kts 144°
2026-05-06 10:56 55.33219 37.73372 20591 ft 428 kts 144°
2026-05-06 10:56 55.30725 37.76887 21030 ft 431 kts 144°
2026-05-06 10:57 55.28246 37.80378 21459 ft 433 kts 144°
2026-05-06 10:57 55.25786 37.83837 21865 ft 436 kts 144°
2026-05-06 10:57 55.23313 37.87308 22261 ft 438 kts 144°
2026-05-06 10:57 55.20764 37.90879 22673 ft 441 kts 144°
2026-05-06 10:58 55.18247 37.94398 23070 ft 443 kts 144°
2026-05-06 10:58 55.15689 37.97970 23460 ft 445 kts 144°
2026-05-06 10:58 55.13115 38.01557 23851 ft 447 kts 144°
2026-05-06 10:58 55.10483 38.05218 24247 ft 449 kts 143°
2026-05-06 10:59 55.07888 38.08820 24620 ft 452 kts 143°
2026-05-06 10:59 55.05264 38.12460 24976 ft 454 kts 143°
2026-05-06 10:59 55.02657 38.16069 25311 ft 457 kts 143°
2026-05-06 10:59 55.00006 38.19736 25639 ft 459 kts 143°
2026-05-06 11:00 54.97373 38.23370 25969 ft 461 kts 143°
2026-05-06 11:00 54.94680 38.27080 26303 ft 463 kts 143°
2026-05-06 11:00 54.91953 38.30832 26606 ft 465 kts 143°
2026-05-06 11:00 54.89296 38.34477 26889 ft 468 kts 143°
2026-05-06 11:01 54.86724 38.37998 27178 ft 469 kts 143°
2026-05-06 11:01 54.84179 38.41479 27489 ft 470 kts 143°
2026-05-06 11:01 54.81543 38.45079 27899 ft 469 kts 143°
2026-05-06 11:01 54.78991 38.48559 28304 ft 467 kts 143°
2026-05-06 11:02 54.76436 38.52036 28684 ft 467 kts 143°
2026-05-06 11:02 54.73888 38.55497 29044 ft 466 kts 143°
2026-05-06 11:02 54.71300 38.59008 29418 ft 465 kts 143°
2026-05-06 11:02 54.68756 38.62452 29791 ft 464 kts 143°
2026-05-06 11:03 54.66204 38.65903 30177 ft 463 kts 144°
2026-05-06 11:03 54.63654 38.69347 30544 ft 462 kts 144°
2026-05-06 11:03 54.61153 38.72716 30892 ft 461 kts 144°
2026-05-06 11:03 54.58625 38.76113 31237 ft 460 kts 143°
2026-05-06 11:04 54.56100 38.79504 31563 ft 459 kts 143°
2026-05-06 11:04 54.53606 38.82845 31877 ft 459 kts 143°
2026-05-06 11:04 54.51100 38.86197 32193 ft 458 kts 143°
2026-05-06 11:04 54.48566 38.89584 32510 ft 457 kts 143°
2026-05-06 11:05 54.46058 38.92941 32823 ft 456 kts 142°
2026-05-06 11:05 54.43639 38.96551 33117 ft 457 kts 137°
2026-05-06 11:05 54.41392 39.00543 33366 ft 458 kts 132°
2026-05-06 11:05 54.39351 39.04890 33592 ft 459 kts 127°
2026-05-06 11:06 54.37589 39.09418 33807 ft 460 kts 121°
2026-05-06 11:06 54.36054 39.14236 34023 ft 461 kts 116°
2026-05-06 11:06 54.34755 39.19275 34220 ft 461 kts 112°
2026-05-06 11:06 54.33559 39.24355 34425 ft 462 kts 111°
2026-05-06 11:07 54.32371 39.29420 34615 ft 463 kts 112°
2026-05-06 11:07 54.31157 39.34494 34800 ft 463 kts 112°
2026-05-06 11:07 54.29922 39.39604 34902 ft 464 kts 112°
2026-05-06 11:08 54.27459 39.49719 34906 ft 463 kts 112°
2026-05-06 11:08 54.24979 39.59844 34907 ft 462 kts 112°
2026-05-06 11:09 54.11910 40.12828 34906 ft 461 kts 109°
2026-05-06 11:09 54.09993 40.23204 34912 ft 460 kts 106°
2026-05-06 11:10 53.83919 41.74934 34854 ft 459 kts 105°
2026-05-06 11:10 53.48346 43.87590 34893 ft 456 kts 106°
2026-05-06 11:11 53.28184 45.04137 34950 ft 452 kts 107°
2026-05-06 11:11 52.96827 46.46065 34964 ft 449 kts 110°
2026-05-06 11:12 52.80478 47.17203 34956 ft 446 kts 109°
2026-05-06 11:12 52.78431 47.26905 34950 ft 446 kts 109°
2026-05-06 11:13 52.76366 47.36595 34945 ft 445 kts 109°
2026-05-06 11:13 52.74289 47.46253 34941 ft 445 kts 109°
2026-05-06 11:14 52.72214 47.55839 34940 ft 444 kts 109°
2026-05-06 11:14 52.70130 47.65477 34938 ft 444 kts 109°
2026-05-06 11:15 52.59087 48.15926 34923 ft 444 kts 109°
2026-05-06 11:15 52.29562 49.44484 34878 ft 444 kts 110°
2026-05-06 11:16 51.94964 50.85885 34779 ft 444 kts 110°
2026-05-06 11:16 51.69782 51.80619 34747 ft 442 kts 114°
2026-05-06 11:17 51.66888 51.89344 34822 ft 442 kts 121°
2026-05-06 11:17 51.63406 51.97461 34836 ft 442 kts 127°
2026-05-06 11:17 50.37634 54.43545 34586 ft 441 kts 130°
2026-05-06 11:18 50.35724 54.47318 34721 ft 444 kts 128°
2026-05-06 11:18 50.32335 54.55450 34799 ft 447 kts 121°
2026-05-06 11:19 50.29713 54.64246 34825 ft 450 kts 112°
2026-05-06 11:19 50.28011 54.72823 34827 ft 452 kts 107°
2026-05-06 11:19 49.71551 57.86198 34983 ft 455 kts 112°
2026-05-06 11:20 49.70633 57.90921 34940 ft 460 kts 114°
2026-05-06 11:20 49.68718 58.00340 34915 ft 461 kts 114°
2026-05-06 11:21 49.66798 58.09759 34906 ft 461 kts 114°
2026-05-06 11:21 49.64881 58.19160 34903 ft 462 kts 114°
2026-05-06 11:22 49.62962 58.28542 34902 ft 462 kts 114°
2026-05-06 11:22 49.61040 58.37910 34903 ft 461 kts 114°
2026-05-06 11:23 49.59100 58.47325 34909 ft 461 kts 114°
2026-05-06 11:23 49.57165 58.56659 34907 ft 461 kts 114°
2026-05-06 11:24 49.55214 58.66036 34915 ft 460 kts 115°
2026-05-06 11:24 49.53258 58.75399 34903 ft 459 kts 115°
2026-05-06 11:25 49.51310 58.84667 34916 ft 460 kts 115°
2026-05-06 11:25 49.49336 58.94027 34930 ft 458 kts 116°
2026-05-06 11:26 49.47368 59.03305 34933 ft 459 kts 115°
2026-05-06 11:26 49.45393 59.12575 34927 ft 457 kts 115°
2026-05-06 11:27 49.43416 59.21812 34925 ft 457 kts 115°
2026-05-06 11:27 49.41437 59.31029 34935 ft 457 kts 115°
2026-05-06 11:28 49.39434 59.40298 34926 ft 457 kts 116°
2026-05-06 11:28 49.37439 59.49502 34930 ft 456 kts 115°
2026-05-06 11:29 49.35429 59.58732 34928 ft 456 kts 115°
2026-05-06 11:29 49.33416 59.67929 34935 ft 454 kts 116°
2026-05-06 11:30 49.31416 59.77039 34928 ft 455 kts 116°
2026-05-06 11:30 49.29361 59.86343 34924 ft 453 kts 116°
2026-05-06 11:31 49.27340 59.95460 34923 ft 452 kts 116°
2026-05-06 11:31 49.25317 60.04554 34923 ft 453 kts 116°
2026-05-06 11:32 49.23292 60.13604 34921 ft 452 kts 116°
2026-05-06 11:32 49.21246 60.22706 34926 ft 454 kts 116°
2026-05-06 11:33 49.19163 60.31941 34924 ft 455 kts 116°
2026-05-06 11:33 49.17091 60.41078 34931 ft 457 kts 116°
2026-05-06 11:34 49.15006 60.50245 34933 ft 458 kts 116°
2026-05-06 11:34 49.12911 60.59418 34940 ft 459 kts 116°
2026-05-06 11:35 49.10816 60.68552 34943 ft 458 kts 116°
2026-05-06 11:35 49.08696 60.77745 34954 ft 460 kts 116°
2026-05-06 11:36 49.06572 60.86919 34955 ft 463 kts 116°
2026-05-06 11:36 49.04427 60.96135 34955 ft 465 kts 116°
2026-05-06 11:37 49.02250 61.05453 34955 ft 466 kts 116°
2026-05-06 11:37 49.00088 61.14684 34954 ft 466 kts 116°
2026-05-06 11:38 48.97906 61.23952 34957 ft 467 kts 116°
2026-05-06 11:38 48.95710 61.33238 34962 ft 467 kts 116°
2026-05-06 11:39 48.93520 61.42464 34956 ft 467 kts 116°
2026-05-06 11:39 48.91307 61.51733 34960 ft 470 kts 116°
2026-05-06 11:40 48.89083 61.61020 34963 ft 469 kts 116°
2026-05-06 11:40 48.86845 61.70328 34966 ft 469 kts 117°
2026-05-06 11:41 48.84618 61.79548 34961 ft 468 kts 117°
2026-05-06 11:41 48.82364 61.88834 34971 ft 469 kts 116°
2026-05-06 11:42 48.80110 61.98078 34964 ft 470 kts 116°
2026-05-06 11:42 48.77850 62.07328 34971 ft 470 kts 116°
2026-05-06 11:43 48.75576 62.16584 34982 ft 471 kts 116°
2026-05-06 11:43 48.73293 62.25843 34974 ft 471 kts 116°
2026-05-06 11:44 48.69846 62.39741 34975 ft 473 kts 116°
2026-05-06 11:44 48.67535 62.49008 34981 ft 472 kts 116°
2026-05-06 11:45 48.65211 62.58287 34979 ft 472 kts 116°
2026-05-06 11:45 48.62809 62.67440 34983 ft 470 kts 121°
2026-05-06 11:46 48.59856 62.76174 34986 ft 465 kts 125°
2026-05-06 11:46 48.56757 62.84675 34993 ft 466 kts 125°
2026-05-06 11:47 48.53641 62.93203 34981 ft 467 kts 125°
2026-05-06 11:47 48.50523 63.01736 34982 ft 467 kts 125°
2026-05-06 11:48 48.47375 63.10325 34983 ft 467 kts 125°
2026-05-06 11:48 48.44251 63.18822 34990 ft 467 kts 125°
2026-05-06 11:49 48.41066 63.27453 34991 ft 467 kts 125°
2026-05-06 11:49 48.37913 63.35979 34991 ft 468 kts 125°
2026-05-06 11:50 48.34757 63.44485 34985 ft 468 kts 125°
2026-05-06 11:50 48.31589 63.52988 34980 ft 468 kts 125°
2026-05-06 11:51 48.28398 63.61533 34978 ft 468 kts 125°
2026-05-06 11:51 48.25217 63.70020 34984 ft 469 kts 126°
2026-05-06 11:52 48.22031 63.78489 34985 ft 469 kts 126°
2026-05-06 11:52 48.18826 63.86989 34981 ft 469 kts 126°
2026-05-06 11:53 48.15641 63.95406 34974 ft 468 kts 126°
2026-05-06 11:53 48.12423 64.03879 34975 ft 467 kts 126°
2026-05-06 11:54 48.09222 64.12283 34978 ft 468 kts 126°
2026-05-06 11:54 48.06000 64.20705 34977 ft 469 kts 126°
2026-05-06 11:55 48.02767 64.29143 34977 ft 470 kts 125°
2026-05-06 11:55 47.99517 64.37605 34975 ft 469 kts 125°
2026-05-06 11:56 47.96280 64.45997 34978 ft 469 kts 126°
2026-05-06 11:56 47.93036 64.54383 34975 ft 469 kts 125°
2026-05-06 11:57 47.89782 64.62763 34976 ft 470 kts 125°
2026-05-06 11:57 47.86512 64.71169 34975 ft 469 kts 126°
2026-05-06 11:58 47.83240 64.79540 34970 ft 471 kts 126°
2026-05-06 11:58 47.79950 64.87937 34967 ft 472 kts 126°
2026-05-06 11:59 47.76640 64.96371 34967 ft 472 kts 125°
2026-05-06 11:59 47.73327 65.04812 34970 ft 473 kts 126°
2026-05-06 12:00 47.70014 65.13224 34967 ft 473 kts 125°
2026-05-06 12:00 47.66706 65.21588 34971 ft 474 kts 126°
2026-05-06 12:01 47.63369 65.30003 34972 ft 473 kts 125°
2026-05-06 12:01 47.60016 65.38425 35253 ft 476 kts 125°
2026-05-06 12:02 47.58353 65.42597 35537 ft 474 kts 125°
2026-05-06 12:02 47.56670 65.46808 35785 ft 473 kts 125°
2026-05-06 12:02 47.55015 65.50949 35966 ft 473 kts 125°
2026-05-06 12:02 47.53337 65.55141 36132 ft 474 kts 125°
2026-05-06 12:03 47.51642 65.59368 36357 ft 474 kts 125°
2026-05-06 12:03 47.49960 65.63554 36591 ft 474 kts 125°
2026-05-06 12:03 47.48289 65.67705 36823 ft 474 kts 126°
2026-05-06 12:03 47.46608 65.71871 37001 ft 474 kts 126°
2026-05-06 12:04 47.43231 65.80227 37005 ft 475 kts 125°
2026-05-06 12:04 47.39840 65.88577 37009 ft 474 kts 125°
2026-05-06 12:05 47.36451 65.96860 37015 ft 475 kts 125°
2026-05-06 12:05 47.32892 66.05526 37017 ft 475 kts 125°
2026-05-06 12:06 47.29475 66.13817 37016 ft 476 kts 125°
2026-05-06 12:06 47.26043 66.22128 37021 ft 476 kts 125°
2026-05-06 12:07 47.22606 66.30423 37022 ft 475 kts 125°
2026-05-06 12:07 47.19170 66.38689 37022 ft 476 kts 125°
2026-05-06 12:08 47.15712 66.46984 37024 ft 477 kts 125°
2026-05-06 12:08 47.12254 66.55257 37026 ft 476 kts 125°
2026-05-06 12:09 47.08809 66.63475 37023 ft 476 kts 125°
2026-05-06 12:09 47.07021 66.67727 37288 ft 475 kts 126°
2026-05-06 12:09 47.05284 66.71858 37111 ft 473 kts 126°
2026-05-06 12:10 47.01846 66.80002 37033 ft 472 kts 126°
2026-05-06 12:10 46.98222 66.88567 37024 ft 472 kts 126°
2026-05-06 12:11 46.94750 66.96742 37018 ft 473 kts 125°
2026-05-06 12:11 46.91328 67.04987 37014 ft 473 kts 124°
2026-05-06 12:12 46.87915 67.13210 37021 ft 473 kts 125°
2026-05-06 12:12 46.84442 67.21309 37015 ft 474 kts 126°
2026-05-06 12:13 46.80924 67.29433 37010 ft 475 kts 125°
2026-05-06 12:13 46.77399 67.37571 37019 ft 473 kts 125°
2026-05-06 12:14 46.73884 67.45668 37017 ft 474 kts 125°
2026-05-06 12:14 46.70381 67.53716 37018 ft 474 kts 125°
2026-05-06 12:15 46.66874 67.61751 37011 ft 473 kts 125°
2026-05-06 12:15 46.63348 67.69818 37013 ft 474 kts 125°
2026-05-06 12:16 46.59896 67.77924 37010 ft 475 kts 124°
2026-05-06 12:16 46.56416 67.86096 37013 ft 475 kts 125°
2026-05-06 12:17 46.52933 67.94183 37008 ft 474 kts 125°
2026-05-06 12:17 46.49809 68.01296 37015 ft 474 kts 125°
2026-05-06 12:18 46.46245 68.09369 37017 ft 474 kts 125°
2026-05-06 12:18 46.42689 68.17408 37016 ft 474 kts 125°
2026-05-06 12:19 46.39133 68.25430 37017 ft 475 kts 125°
2026-05-06 12:19 46.35574 68.33446 37014 ft 476 kts 125°
2026-05-06 12:20 46.31998 68.41468 37014 ft 476 kts 125°
2026-05-06 12:20 46.28407 68.49506 37006 ft 476 kts 125°
2026-05-06 12:21 46.24823 68.57507 37010 ft 476 kts 124°
2026-05-06 12:21 46.21221 68.65519 37009 ft 478 kts 126°
2026-05-06 12:22 46.17619 68.73509 37004 ft 477 kts 125°
2026-05-06 12:22 46.13987 68.81548 37009 ft 478 kts 125°
2026-05-06 12:23 46.10367 68.89530 37008 ft 479 kts 125°
2026-05-06 12:23 46.06713 68.97566 37020 ft 480 kts 125°
2026-05-06 12:24 46.03059 69.05578 37029 ft 481 kts 125°
2026-05-06 12:24 45.99360 69.13632 37031 ft 481 kts 125°
2026-05-06 12:25 45.95677 69.21621 37031 ft 480 kts 125°
2026-05-06 12:25 45.91982 69.29617 37040 ft 481 kts 125°
2026-05-06 12:26 45.88260 69.37646 37041 ft 480 kts 125°
2026-05-06 12:26 45.84564 69.45602 37033 ft 481 kts 125°
2026-05-06 12:27 45.80851 69.53568 37038 ft 482 kts 124°
2026-05-06 12:27 45.76930 69.61961 37043 ft 482 kts 124°
2026-05-06 12:28 45.73156 69.70012 37030 ft 482 kts 125°
2026-05-06 12:28 45.69427 69.77946 37039 ft 483 kts 125°
2026-05-06 12:29 45.65684 69.85885 37035 ft 482 kts 125°
2026-05-06 12:29 45.61907 69.93878 37036 ft 482 kts 124°
2026-05-06 12:30 45.58152 70.01799 37027 ft 482 kts 124°
2026-05-06 12:30 45.54400 70.09695 37027 ft 482 kts 124°
2026-05-06 12:31 45.50648 70.17563 37026 ft 483 kts 124°
2026-05-06 12:31 45.46883 70.25438 37024 ft 482 kts 124°
2026-05-06 12:32 45.43111 70.33309 37027 ft 483 kts 124°
2026-05-06 12:32 45.39328 70.41179 37026 ft 483 kts 124°
2026-05-06 12:33 45.35556 70.49006 37028 ft 484 kts 124°
2026-05-06 12:33 45.31717 70.56952 37030 ft 484 kts 124°
2026-05-06 12:34 45.27926 70.64773 37031 ft 484 kts 124°
2026-05-06 12:34 45.24069 70.72709 37031 ft 483 kts 124°
2026-05-06 12:35 45.20270 70.80528 37030 ft 483 kts 124°
2026-05-06 12:35 45.16469 70.88337 37034 ft 484 kts 124°
2026-05-06 12:36 45.12644 70.96169 37037 ft 483 kts 124°
2026-05-06 12:36 45.08816 71.03988 37034 ft 484 kts 123°
2026-05-06 12:37 45.04978 71.11809 37034 ft 485 kts 123°
2026-05-06 12:37 45.01141 71.19598 37024 ft 485 kts 123°
2026-05-06 12:38 44.97286 71.27406 37022 ft 485 kts 123°
2026-05-06 12:38 44.93419 71.35218 37020 ft 484 kts 123°
2026-05-06 12:39 44.89584 71.42944 37023 ft 483 kts 123°
2026-05-06 12:39 44.85685 71.50778 37024 ft 483 kts 123°
2026-05-06 12:40 44.81829 71.58507 37022 ft 484 kts 122°
2026-05-06 12:40 44.77969 71.66220 36800 ft 483 kts 123°
2026-05-06 12:41 44.76034 71.70081 36959 ft 485 kts 123°
2026-05-06 12:41 44.74092 71.73950 36998 ft 487 kts 123°
2026-05-06 12:41 44.70122 71.81836 37017 ft 486 kts 123°
2026-05-06 12:42 44.66197 71.89616 37020 ft 486 kts 123°
2026-05-06 12:42 44.62266 71.97385 37026 ft 485 kts 123°
2026-05-06 12:43 44.58362 72.05084 37027 ft 485 kts 123°
2026-05-06 12:43 44.54452 72.12779 37019 ft 485 kts 122°
2026-05-06 12:44 44.50521 72.20488 37030 ft 486 kts 123°
2026-05-06 12:44 44.48517 72.24409 36916 ft 487 kts 122°
2026-05-06 12:44 44.46550 72.28252 36582 ft 483 kts 122°
2026-05-06 12:45 44.44618 72.32020 36294 ft 479 kts 122°
2026-05-06 12:45 44.42446 72.36251 36007 ft 475 kts 122°
2026-05-06 12:45 44.38680 72.43574 35535 ft 472 kts 122°
2026-05-06 12:46 44.36778 72.47272 35274 ft 473 kts 122°
2026-05-06 12:46 44.34806 72.51096 34904 ft 472 kts 122°
2026-05-06 12:46 44.32916 72.54756 34559 ft 472 kts 121°
2026-05-06 12:46 44.30987 72.58484 34207 ft 471 kts 121°
2026-05-06 12:47 44.29084 72.62167 33800 ft 472 kts 121°
2026-05-06 12:47 44.26919 72.66357 33340 ft 474 kts 122°
2026-05-06 12:47 44.24794 72.70467 32889 ft 475 kts 122°
2026-05-06 12:47 44.22570 72.74757 32427 ft 476 kts 122°
2026-05-06 12:48 44.20321 72.79082 31963 ft 477 kts 122°
2026-05-06 12:48 44.17989 72.83565 31479 ft 478 kts 123°
2026-05-06 12:48 44.15774 72.87812 31038 ft 480 kts 123°
2026-05-06 12:48 44.13664 72.91853 30614 ft 480 kts 123°
2026-05-06 12:49 44.11727 72.95557 30237 ft 480 kts 123°
2026-05-06 12:49 44.09534 72.99744 29793 ft 480 kts 123°
2026-05-06 12:49 44.07333 73.03935 29369 ft 480 kts 123°
2026-05-06 12:49 44.05298 73.07803 28968 ft 481 kts 123°
2026-05-06 12:50 44.03333 73.11535 28525 ft 481 kts 124°
2026-05-06 12:50 44.01377 73.15244 28054 ft 481 kts 124°
2026-05-06 12:50 43.99391 73.19006 27580 ft 482 kts 124°
2026-05-06 12:50 43.97430 73.22715 27110 ft 481 kts 124°
2026-05-06 12:51 43.95466 73.26421 26640 ft 477 kts 124°
2026-05-06 12:51 43.93404 73.30307 26147 ft 473 kts 124°
2026-05-06 12:51 43.91463 73.33965 25676 ft 468 kts 124°
2026-05-06 12:51 43.89549 73.37568 25208 ft 464 kts 124°
2026-05-06 12:52 43.87587 73.41256 24726 ft 461 kts 124°
2026-05-06 12:52 43.85715 73.44769 24243 ft 457 kts 124°
2026-05-06 12:52 43.85003 73.46106 24059 ft 456 kts 125°
2026-05-06 12:52 43.83112 73.49651 23562 ft 453 kts 125°
2026-05-06 12:53 43.81248 73.53140 23079 ft 449 kts 125°
2026-05-06 12:53 43.79389 73.56618 22601 ft 446 kts 125°
2026-05-06 12:53 43.77513 73.60122 22117 ft 442 kts 125°
2026-05-06 12:53 43.75648 73.63600 21636 ft 438 kts 125°
2026-05-06 12:54 43.73821 73.67004 21159 ft 435 kts 126°
2026-05-06 12:54 43.72028 73.70339 20697 ft 431 kts 126°
2026-05-06 12:54 43.70171 73.73586 20232 ft 428 kts 130°
2026-05-06 12:54 43.68175 73.76630 19748 ft 424 kts 134°
2026-05-06 12:55 43.66061 73.79467 18880 ft 428 kts 137°
2026-05-06 12:55 43.63873 73.82282 17948 ft 431 kts 138°
2026-05-06 12:55 43.61694 73.85067 17296 ft 428 kts 138°
2026-05-06 12:55 43.59518 73.87853 16723 ft 422 kts 138°
2026-05-06 12:56 43.59157 73.88316 16624 ft 421 kts 138°